www.pogodaiklimat.ru

Погода и климат >> Архив погоды >> Россия >> Крым >> Керчь


АРХИВ ПОГОДЫ в Керчи

Время (UTC), дата Ветер
(напр.,м/с)
 
Видим.   Явления Облачность Т
(С)
Тd
(С)
f
(%)
Тe
(С)
Тes
(С)
Комфортность P
(гПа)
Po
(гПа)
Тmin
(С)
Tmax
(С)
R
(мм)
R24
(мм)
S
(см)
21 17.05 З 1 10 км ясно +17.3 +15.4 89 +18 +18 тепло 1008.7 1002.9
00 18.05 С 5 10 км 5/0
[Ac trans]
+17.6 +13.7 78 +17 +17 тепло 1006.9 1001.1
03 18.05 СВ 4 10 км 8/0
[Ac trans Ci fib]
+18.2 +15.1 82 +18 +19 тепло 1006.8 1001.0 +16.7
06 18.05 СВ 5 20 км 8/4 600 м
[Cu hum Ci fib]
+22.2 +16.4 70 +26 +29 душно 1006.2 1000.5 +16.7
09 18.05 В 6
{11}
20 км 8/0
[Ci fib]
+23.2 +16.0 64 +28 +34 душно 1006.8 1001.1
12 18.05 СВ 5 20 км 3/0
[Ci fib]
+24.9 +17.4 63 +29 +36 душно 1006.0 1000.4
15 18.05 СВ 5 20 км 3/0
[Ci fib]
+23.6 +17.2 67 +27 +29 жарко 1004.5 998.9
18 18.05 В 2 10 км 4/3 600 м
[Sc Ci fib]
+20.1 +16.6 80 +23 +23 комфорт 1005.4 999.7 +25.3
21 18.05 СВ 4
{10}
10 км 6/0
[Ci fib]
+20.7 +16.0 74 +24 +24 комфорт 1005.5 999.8
00 19.05 В 5 10 км 8/3 600 м
[Sc Ci fib]
+19.8 +16.1 79 +22 +22 комфорт 1005.0 999.3
03 19.05 СВ 4 20 км 8/6 600 м
[Cb calv Ci fib]
+18.4 +14.4 78 +19 +19 тепло 1005.8 1000.1 +18.1
06 19.05 С 2 20 км 6/4 600 м
[Sc diur, vesp Ac und]
+20.3 +15.4 73 +24 +28 комфорт 1006.6 1000.9 +17.9
09 19.05 ЮЗ 3 10 км слаб. ливневой дождь 10/9 600 м
[Cb cap Ac und]
+20.7 +17.8 83 +25 +25 комфорт 1008.5 1002.8
12 19.05 штиль 0 20 км {ливн. осадки} 8/6 600 м
[Cb calv Ac und]
+21.6 +17.1 76 +26 +30 душно 1010.0 1004.3
15 19.05 ЮВ 3 20 км 8/5 600 м
[Sc diur, vesp Ac trans]
+21.1 +16.3 74 +24 +25 комфорт 1010.3 1004.6 0.5
18 19.05 штиль 0 10 км {ливн. осадки} 10/8 600 м
[Sc diur, vesp Ac und]
+18.4 +16.2 87 +19 +19 тепло 1012.1 1006.2 +23.5 1
21 19.05 Ю 2 10 км 8/4 600 м
[Sc Ac trans]
+18.0 +15.8 87 +19 +19 тепло 1012.7 1006.9
00 20.05 СЗ 3 10 км н/о +17.8 +14.9 83 +18 +18 тепло 1013.5 1007.7
03 20.05 ЮЗ 1 10 км дымка 6/4 600 м
[Sc Ac und]
+15.0 +13.6 91 +15 +16 по сезону 1014.0 1008.1 +14.4 0.5
06 20.05 В 2 10 км 9/8 600 м
[Cb calv Ac trans]
+20.3 +17.4 83 +24 +25 комфорт 1015.0 1009.3 +14.4
09 20.05 С 3 10 км 9/8 600 м
[Cb calv Ac trans]
+23.1 +17.5 71 +28 +31 душно 1015.9 1010.2
12 20.05 В 2 10 км 8/4 600 м
[Sc diur, vesp Ac trans Ci fib]
+21.8 +17.1 75 +26 +31 душно 1016.4 1010.7
15 20.05 В 4 20 км 8/6 600 м
[Sc diur, vesp Ac trans Ci fib]
+21.0 +17.1 78 +25 +26 комфорт 1015.9 1010.2
18 20.05 В 2 10 км 4/0
[Ci fib]
+18.0 +16.5 91 +19 +19 тепло 1015.6 1009.8 +23.4
21 20.05 ЮЗ 1 10 км 3/0
[Ci fib]
+15.5 +14.1 91 +16 +16 тепло 1016.1 1010.2
00 21.05 З 1 2000 м дымка 3/0
[Ci fib]
+13.0 +12.3 96 +13 +13 по сезону 1015.4 1009.5
03 21.05 ЮЗ 1 500 м туман 8/0
[Ci fib]
+14.3 +14.1 99 +15 +15 по сезону 1016.0 1010.1 +12.3
06 21.05 В 4 10 км {туман} 8/0
[Ci fib]
+21.2 +16.6 75 +25 +30 комфорт 1016.0 1010.3 +12.3
09 21.05 ЮВ 4 20 км 8/3 600 м
[Cu hum Ac trans]
+22.8 +17.0 70 +28 +33 душно 1016.6 1010.9
12 21.05 ЮВ 5 10 км 9/8 600 м
[Cb calv Ac und]
+21.2 +15.1 68 +24 +25 комфорт 1016.4 1010.7
15 21.05 ЮВ 3 10 км 8/5 600 м
[Sc diur, vesp Ac trans]
+19.6 +16.6 83 +22 +23 комфорт 1015.1 1009.3
18 21.05 Ю 1 4000 м дымка 3/0
[Ac trans]
+17.1 +15.2 89 +18 +18 тепло 1014.8 1009.0 +23.3
21 21.05 штиль 0 1000 м дымка ясно +14.3 +14.1 99 +14 +14 по сезону 1014.1 1008.2
00 22.05 Ю 2 500 м туман 8/6 300 м
[Sc Ac und]
+15.1 +14.9 99 +15 +15 тепло 1013.7 1007.8
03 22.05 штиль 0 10 км {туман} 9/6 600 м
[Sc Ac trans]
+15.1 +13.1 88 +15 +15 по сезону 1012.6 1006.7 +13.3
06 22.05 ЮВ 3 10 км слаб. ливневой дождь {туман} 10/8 600 м
[Cb cap Ac und]
+16.3 +14.9 91 +16 +16 по сезону 1012.8 1007.0 +13.3 0.7
09 22.05 ЮВ 5 20 км {ливн. осадки} 8/6 600 м
[Cb calv Ac trans]
+19.7 +15.5 77 +22 +24 комфорт 1012.6 1006.8
12 22.05 Ю 5
{10}
20 км {ливн. осадки} 6/6 600 м
[Cu hum]
+22.9 +15.4 63 +27 +30 душно 1012.1 1006.4
15 22.05 ЮЗ 5
{10}
20 км 4/3 600 м
[Cu hum Ci fib]
+21.8 +15.5 67 +25 +26 комфорт 1011.6 1005.9 2
18 22.05 ЮЗ 3 10 км 6/4 600 м
[Sc Ci fib]
+17.1 +15.7 91 +17 +17 тепло 1012.7 1006.9 +23.5 2
21 22.05 ЮЗ 3 10 км в посл. час ливневой дождь 3/3 600 м
[Cb cap]
+16.0 +14.9 93 +15 +15 по сезону 1012.4 1006.6
00 23.05 ЮЗ 2 10 км {ливн. осадки} 3/0
[Ci fib]
+15.3 +13.9 91 +15 +15 тепло 1012.0 1006.2
03 23.05 ЮЗ 4 10 км 3/0
[Ci fib]
+15.1 +13.5 90 +14 +14 по сезону 1011.6 1005.8 +13.9 0.6
06 23.05 ЮЗ 5 20 км 3/1 600 м
[Cu hum Ac trans]
+20.5 +14.1 67 +23 +27 комфорт 1011.0 1005.3 +13.9 0.6
09 23.05 Ю 6 20 км 8/6 600 м
[Cb calv Ac und]
+20.6 +14.5 68 +23 +25 комфорт 1010.9 1005.2
12 23.05 Ю 7
{10}
20 км в посл. час ливневой дождь 8/4 600 м
[Cb calv Ac und]
+21.8 +14.3 62 +25 +26 комфорт 1011.1 1005.4
15 23.05 Ю 6
{11}
20 км 8/5 600 м
[Cb calv Ac und]
+20.7 +11.3 55 +22 +23 комфорт 1010.3 1004.6 0.0
18 23.05 ЮЗ 3 10 км 1/0 600 м
[Ac trans]
+17.3 +15.2 87 +17 +17 тепло 1010.5 1004.7 +24.4 0.0
21 23.05 Ю 2 10 км ясно +16.4 +13.9 85 +17 +17 тепло 1010.3 1004.5
00 24.05 Ю 3 4000 м дымка ясно +15.6 +13.8 89 +15 +15 тепло 1010.4 1004.6
03 24.05 штиль 0 2000 м дымка ясно +15.5 +13.9 90 +15 +16 по сезону 1010.2 1004.4 +14.3
06 24.05 ЮВ 3 10 км 4/3 600 м
[Sc Ci fib]
+19.0 +15.8 82 +21 +26 комфорт 1010.0 1004.2 +14.3
09 24.05 ЮВ 5 20 км 4/1 600 м
[Cu hum Ci fib]
+22.0 +15.9 68 +26 +34 душно 1010.1 1004.4
12 24.05 ЮВ 4 20 км 8/1 600 м
[Cu hum Ac trans Ci]
+22.7 +13.2 55 +26 +31 жарко 1009.3 1003.6
15 24.05 ЮВ 4 20 км 6/1 600 м
[Sc diur, vesp Ac trans Ci fib]
+21.3 +15.8 71 +25 +26 комфорт 1008.4 1002.7
18 24.05 штиль 0 10 км 8/1 600 м
[Sc Ac trans Ci fib]
+17.0 +15.3 90 +17 +17 тепло 1008.5 1002.7 +23.7

 

Местоположение метеостанции Керчь (Крым, Россия): широта 45.37 долгота 36.43 высота над уровнем моря 49 м.

В архиве по умолчанию представлена погода в Керчи за последнюю неделю. Архивные данные за месяц целиком и за предыдущие месяцы, начиная с января 2011 года, Вы можете получить, выбрав интересующий диапазон дат из раскрывающегося списка и нажав кнопку "Ввод!".


*Определитесь, кто Вы:
робот инопланетянин человек

Внимание! Время в таблицах - всемирное. Для получения местного времени необходимо прибавить поправку, которая равна 3 ч.

Смотрите также архив погоды в соседних городах и на ближайших метеорологических станциях:

Погода в Опасном (Крым, Россия) (16 км)
Погода в Тамани (Краснодарский край, Россия) (28 км)
Погода в Мысовом (Крым, Россия) (48 км)
Погода в Темрюке (Краснодарский край, Россия) (74 км)
Погода в Владиславовке (Крым, Россия) (85 км)
Погода в Анапе (Краснодарский край, Россия) (86 км)
Погода в Феодосии (Крым, Россия) (91 км)
Погода в Карадаге (Крым, Россия) (110 км)
Погода в Славянске-на-Кубани (Краснодарский край, Россия) (133 км)
Погода в Крымске (Краснодарский край, Россия) (133 км)

Пояснения к столбцам:

Ветер - указаны скорость ветра в м/с - средняя за 10 мин, порывы в срок и между сроками (в фигурных скобках) и направление, откуда дует ветер: С - северный, СВ - северо-восточный, В - восточный, ЮВ - юго-восточный, Ю - южный, ЮЗ - юго-западный, З - западный, СЗ - северо-западный.
Видимость - горизонтальная дальность видимости в метрах или километрах. При видимости от 1 до 10 км при отсутствии осадков обычно наблюдается дымка, при ухудшении видимости до 1 км и менее - туман. В сухую погоду видимость может ухудшаться дымом, пылью или мглою.
Явления - указаны атмосферные явления, наблюдавшиеся в срок или в последний час перед сроком; фигурными скобками обозначены явления, наблюдавшиеся между сроками (за 1-3 часа до срока); квадратными скобками обозначены град или гололедные отложения с указанием их диаметра в мм.
Облачность - указаны через наклонную черту общая и нижняя облачность в баллах и высота нижней границы облаков в метрах; квадратными скобками обозначены формы облаков: Ci - перистые, Cs - перисто-слоистые, Cc - перисто-кучевые, Ac - высококучевые, As - высокослоистые, Sc - слоисто-кучевые, Ns - слоисто-дождевые, Cu - кучевые, Cb - кучево-дождевые. Подробнее классификацию облаков см. в Атласе облаков (PDF).
T - Температура воздуха - температура, измеренная на высоте 2 м над землей.
Td - Температура точки росы - температура, при понижении до которой содержащийся в воздухе водяной пар достигнет насыщения.
f - Относительная влажность воздуха - влажноcть воздуха, измеренная на высоте 2 м над землей.
Te - Эффективная температура - температура, которую ощущает одетый по сезону человек в тени. Характеристика душности погоды. При расчете учитывается влияние влажности воздуха и скорости ветра на теплоощущения человека.
Tes - Эффективная температура на солнце - температура, которую ощущает человек, с поправкой на солнечный нагрев. Характеристика знойности погоды. Зависит от высоты солнца над горизонтом, облачности и скорости ветра. Ночью, в пасмурную погоду, а также при ветре 12 м/с и более поправка равна нулю.
P - Атмосферное давление - приведенное к уровню моря атмосферное давление.
Po - Атмосферное давление - измеренное на уровне метеостанции атмосферное давление.
Tmin - Минимальная температура - минимум температуры воздуха на высоте 2 м над землей.
Tmax - Максимальная температура - максимум температуры воздуха на высоте 2 м над землей.
R - Количество осадков - Количество выпавших осадков за период времени, мм. При наведении курсора мыши на число - период времени, за который выпало указанное количество осадков.
R24 - Количество осадков - Количество выпавших осадков за 24 часа, мм.
S - Снежный покров - Высота снежного покрова, см. При наведении курсора мыши на число - состояние снежного покрова и степень покрытия местности в баллах.